C/2011 A3 ( Gibbs )

Japanese version
Home page
Updated on February 3, 2013

---------------------------------------------------------------------

* Profile

Discovery Date January 15, 2011
Magnitude 18.4 mag
Discoverer A. R. Gibbs (Catalina)

* Pictures

* Orbital Elements

Epoch 2011 Dec. 25.0 TT = JDT 2455920.5
T 2011 Dec. 16.08160 TT                                 MPC
q   2.3449152            (2000.0)            P               Q
z  +0.0009160      Peri.  141.16186     -0.01649190     +0.93259757
 +/-0.0000006      Node   124.89030     -0.99145479     +0.03141512
e   0.9978521      Incl.   26.07522     -0.12940405     -0.35954813
From 1566 observations 2011 Jan. 15-2012 Dec. 8, mean residual 0".6.

* Finding Charts

* Magnitudes Graph

        m1 = 5.5 + 5 log d + 15.0 log r

---------------------------------------------------------------------

The orbital elements are published on M.P.E.C. 2012-Y30.
The charts are made with StellaNavigator Ver.8 (AstroArts).
The magnitudes graphs are made with Comet for Windows.

---------------------------------------------------------------------

Copyright(C) Seiichi Yoshida (comet@aerith.net). All rights reserved.